| time (UTC) | temp C | wind direction | speed KPH | gust KPH | rain 1hr cm | rain 24hr cm | rain mn cm | humidity % | barometer mb |
| 20260510182913 | 8 | 155 | 3.2 | 11.3 | 0.00 | 0.00 | 0.00 | 44 | 1022.9 |
| 20260510182405 | 9 | 76 | 0.0 | 11.3 | 0.00 | 0.00 | 0.00 | 42 | 1023.0 |
| 20260510181902 | 8 | 217 | 6.4 | 11.3 | 0.00 | 0.00 | 0.00 | 41 | 1022.9 |
| 20260510181404 | 8 | 159 | 3.2 | 9.7 | 0.00 | 0.00 | 0.00 | 42 | 1022.6 |
| 20260510180901 | 9 | 186 | 6.4 | 8.0 | 0.00 | 0.00 | 0.00 | 41 | 1022.9 |
| 20260510175901 | 8 | 90 | 0.0 | 11.3 | 0.00 | 0.00 | 0.00 | 44 | 1022.7 |
| 20260510175402 | 8 | 163 | 3.2 | 8.0 | 0.00 | 0.00 | 0.00 | 43 | 1022.7 |
| 20260510174901 | 9 | 180 | 6.4 | 12.9 | 0.00 | 0.00 | 0.00 | 43 | 1022.5 |
| 20260510174402 | 8 | 84 | 3.2 | 12.9 | 0.00 | 0.00 | 0.00 | 45 | 1023.0 |
| 20260510173901 | 8 | 125 | 4.8 | 9.7 | 0.00 | 0.00 | 0.00 | 43 | 1022.8 |
| 20260510173404 | 8 | 151 | 6.4 | 17.7 | 0.00 | 0.00 | 0.00 | 44 | 1022.7 |
| 20260510172904 | 8 | 165 | 4.8 | 17.7 | 0.00 | 0.00 | 0.00 | 42 | 1022.8 |
| 20260510172402 | 8 | 191 | 3.2 | 9.7 | 0.00 | 0.00 | 0.00 | 44 | 1022.8 |
| 20260510171901 | 8 | 162 | 8.0 | 9.7 | 0.00 | 0.00 | 0.00 | 43 | 1022.8 |
| 20260510171403 | 7 | 212 | 4.8 | 9.7 | 0.00 | 0.00 | 0.00 | 44 | 1023.2 |
| 20260510170901 | 7 | 138 | 3.2 | 9.7 | 0.00 | 0.00 | 0.00 | 45 | 1023.1 |
| 20260510170404 | 7 | 270 | 4.8 | 16.1 | 0.00 | 0.00 | 0.00 | 45 | 1022.9 |
| 20260510165901 | 7 | 225 | 4.8 | 16.1 | 0.00 | 0.00 | 0.00 | 43 | 1022.9 |
| 20260510165418 | 7 | 210 | 4.8 | 14.5 | 0.00 | 0.00 | 0.00 | 46 | 1023.2 |
| 20260510164904 | 8 | 151 | 3.2 | 12.9 | 0.00 | 0.00 | 0.00 | 46 | 1022.9 |
| 20260510164405 | 7 | 200 | 1.6 | 12.9 | 0.00 | 0.00 | 0.00 | 45 | 1023.1 |
| 20260510163404 | 7 | 135 | 4.8 | 11.3 | 0.00 | 0.00 | 0.00 | 47 | 1023.1 |
| 20260510162904 | 6 | 117 | 4.8 | 11.3 | 0.00 | 0.00 | 0.00 | 49 | 1023.3 |
| 20260510162402 | 6 | 202 | 6.4 | 11.3 | 0.00 | 0.00 | 0.00 | 48 | 1023.2 |
| 20260510161903 | 7 | 216 | 4.8 | 9.7 | 0.00 | 0.00 | 0.00 | 48 | 1023.1 |
| 20260510161405 | 6 | 180 | 3.2 | 9.7 | 0.00 | 0.00 | 0.00 | 50 | 1023.0 |
| 20260510160903 | 6 | 125 | 3.2 | 9.7 | 0.00 | 0.00 | 0.00 | 49 | 1022.7 |
| 20260510160402 | 6 | 103 | 3.2 | 9.7 | 0.00 | 0.00 | 0.00 | 50 | 1023.0 |
| 20260510155402 | 6 | 45 | 3.2 | 16.1 | 0.00 | 0.00 | 0.00 | 47 | 1022.7 |
| 20260510154901 | 6 | 206 | 0.0 | 16.1 | 0.00 | 0.00 | 0.00 | 46 | 1022.5 |
| 20260510154403 | 6 | 152 | 3.2 | 9.7 | 0.00 | 0.00 | 0.00 | 47 | 1022.6 |
| 20260510153902 | 7 | 138 | 4.8 | 12.9 | 0.00 | 0.00 | 0.00 | 44 | 1022.8 |
| 20260510152901 | 6 | 196 | 8.0 | 9.7 | 0.00 | 0.00 | 0.00 | 46 | 1022.7 |
| 20260510152403 | 5 | 350 | 3.2 | 9.7 | 0.00 | 0.00 | 0.00 | 46 | 1022.4 |
| 20260510150903 | 6 | 105 | 3.2 | 11.3 | 0.00 | 0.00 | 0.00 | 46 | 1022.2 |
| 20260510150402 | 6 | 291 | 0.0 | 11.3 | 0.00 | 0.00 | 0.00 | 47 | 1022.4 |
| 20260510145901 | 6 | 109 | 3.2 | 8.0 | 0.00 | 0.00 | 0.00 | 46 | 1022.2 |
| 20260510145404 | 6 | 166 | 4.8 | 9.7 | 0.00 | 0.00 | 0.00 | 45 | 1022.4 |
| 20260510144900 | 6 | 193 | 6.4 | 11.3 | 0.00 | 0.00 | 0.00 | 47 | 1022.3 |
| 20260510144402 | 5 | 127 | 4.8 | 11.3 | 0.00 | 0.00 | 0.00 | 48 | 1022.4 |
| 20260510143404 | 5 | 172 | 6.4 | 11.3 | 0.00 | 0.00 | 0.00 | 48 | 1022.3 |
| 20260510142901 | 5 | 150 | 0.0 | 11.3 | 0.00 | 0.00 | 0.00 | 50 | 1022.2 |
| 20260510140902 | 5 | 176 | 6.4 | 11.3 | 0.00 | 0.00 | 0.00 | 52 | 1021.8 |
| 20260510135902 | 4 | 189 | 3.2 | 12.9 | 0.00 | 0.00 | 0.00 | 52 | 1022.0 |
| 20260510135402 | 3 | 137 | 4.8 | 9.7 | 0.00 | 0.00 | 0.00 | 55 | 1022.0 |
| 20260510134902 | 3 | 180 | 1.6 | 9.7 | 0.00 | 0.00 | 0.00 | 59 | 1021.9 |
| 20260510133905 | 3 | 99 | 3.2 | 8.0 | 0.00 | 0.00 | 0.00 | 67 | 1022.0 |
| 20260510133407 | 3 | 151 | 1.6 | 6.4 | 0.00 | 0.00 | 0.00 | 67 | 1021.8 |
| 20260510132906 | 4 | 215 | 1.6 | 8.0 | 0.00 | 0.00 | 0.00 | 65 | 1021.9 |
| 20260510132405 | 4 | 180 | 0.0 | 9.7 | 0.00 | 0.00 | 0.00 | 67 | 1021.5 |
| 20260510131903 | 3 | 183 | 3.2 | 9.7 | 0.00 | 0.00 | 0.00 | 68 | 1021.7 |
| 20260510131403 | 3 | 159 | 9.7 | 9.7 | 0.00 | 0.00 | 0.00 | 70 | 1021.7 |
| 20260510130902 | 3 | 82 | 3.2 | 8.0 | 0.00 | 0.00 | 0.00 | 72 | 1021.8 |
| 20260510130402 | 3 | 152 | 3.2 | 8.0 | 0.00 | 0.00 | 0.00 | 73 | 1021.6 |
| 20260510125402 | 2 | 185 | 4.8 | 8.0 | 0.00 | 0.00 | 0.00 | 75 | 1021.6 |
| 20260510124901 | 2 | 90 | 1.6 | 8.0 | 0.00 | 0.00 | 0.00 | 74 | 1021.6 |
| 20260510124401 | 2 | 195 | 3.2 | 9.7 | 0.00 | 0.00 | 0.00 | 74 | 1021.4 |
| 20260510123903 | 2 | 125 | 6.4 | 9.7 | 0.00 | 0.00 | 0.00 | 76 | 1021.4 |
| 20260510123400 | 2 | 81 | 6.4 | 6.4 | 0.00 | 0.00 | 0.00 | 77 | 1021.2 |
| 20260510122901 | 2 | 139 | 3.2 | 4.8 | 0.00 | 0.00 | 0.00 | 76 | 1021.1 |
| 20260510122401 | 1 | 145 | 1.6 | 6.4 | 0.00 | 0.00 | 0.00 | 77 | 1021.1 |
| 20260510121901 | 1 | 165 | 0.0 | 6.4 | 0.00 | 0.00 | 0.00 | 79 | 1020.8 |
| 20260510121403 | 1 | 173 | 0.0 | 4.8 | 0.00 | 0.00 | 0.00 | 82 | 1020.7 |
| 20260510120403 | 0 | 139 | 3.2 | 4.8 | 0.00 | 0.00 | 0.00 | 81 | 1020.7 |
| 20260510114400 | 0 | 103 | 0.0 | 3.2 | 0.00 | 0.00 | 0.00 | 83 | 1020.8 |
| 20260510113903 | 0 | 120 | 0.0 | 4.8 | 0.00 | 0.00 | 0.00 | 84 | 1020.5 |
| 20260510113401 | 0 | 128 | 3.2 | 6.4 | 0.00 | 0.00 | 0.00 | 84 | 1020.7 |
| 20260510112900 | 0 | 114 | 0.0 | 6.4 | 0.00 | 0.00 | 0.00 | 85 | 1020.6 |
| 20260510112402 | 0 | 154 | 3.2 | 4.8 | 0.00 | 0.00 | 0.00 | 86 | 1020.1 |
| 20260510111920 | -1 | 157 | 0.0 | 4.8 | 0.00 | 0.00 | 0.00 | 87 | 1020.3 |
| 20260510111400 | -1 | 90 | 0.0 | 3.2 | 0.00 | 0.00 | 0.00 | 88 | 1020.1 |
| 20260510110903 | -1 | 135 | 3.2 | 3.2 | 0.00 | 0.00 | 0.00 | 89 | 1020.1 |
| 20260510110403 | -1 | 111 | 1.6 | 3.2 | 0.00 | 0.00 | 0.00 | 90 | 1020.1 |
| 20260510105901 | -1 | 97 | 0.0 | 3.2 | 0.00 | 0.00 | 0.00 | 89 | 1019.7 |
| 20260510104400 | -1 | 75 | 0.0 | 1.6 | 0.00 | 0.00 | 0.00 | 88 | 1019.6 |
| 20260510103401 | -1 | 157 | 0.0 | 3.2 | 0.00 | 0.00 | 0.00 | 87 | 1019.4 |
| 20260510102903 | 0 | 82 | 0.0 | 3.2 | 0.00 | 0.00 | 0.00 | 86 | 1019.4 |
| 20260510102400 | 0 | 114 | 0.0 | 3.2 | 0.00 | 0.00 | 0.00 | 85 | 1019.4 |
| 20260510101900 | 0 | 96 | 0.0 | 3.2 | 0.00 | 0.00 | 0.00 | 84 | 1019.4 |
| 20260510101401 | 0 | 90 | 0.0 | 4.8 | 0.00 | 0.00 | 0.00 | 83 | 1019.3 |
| 20260510100403 | 0 | 114 | 1.6 | 6.4 | 0.00 | 0.00 | 0.00 | 83 | 1019.2 |
| 20260510095901 | 0 | 159 | 3.2 | 6.4 | 0.00 | 0.00 | 0.00 | 83 | 1019.3 |
| 20260510095401 | 0 | 157 | 1.6 | 3.2 | 0.00 | 0.00 | 0.00 | 84 | 1019.1 |
| 20260510094900 | 0 | 151 | 1.6 | 3.2 | 0.00 | 0.00 | 0.00 | 84 | 1019.1 |
| 20260510094400 | 0 | 66 | 1.6 | 3.2 | 0.00 | 0.00 | 0.00 | 82 | 1019.0 |
| 20260510093903 | 0 | 102 | 0.0 | 4.8 | 0.00 | 0.00 | 0.00 | 81 | 1019.1 |
| 20260510093402 | 1 | 144 | 3.2 | 4.8 | 0.00 | 0.00 | 0.00 | 81 | 1019.0 |
| 20260510092901 | 1 | 154 | 3.2 | 6.4 | 0.00 | 0.00 | 0.00 | 80 | 1018.7 |
| 20260510091900 | 1 | 150 | 3.2 | 6.4 | 0.00 | 0.00 | 0.00 | 79 | 1018.7 |
| 20260510090901 | 1 | 174 | 3.2 | 6.4 | 0.00 | 0.00 | 0.00 | 79 | 1018.8 |
| 20260510090403 | 1 | 157 | 1.6 | 6.4 | 0.00 | 0.00 | 0.00 | 78 | 1018.4 |
| 20260510085903 | 2 | 132 | 3.2 | 6.4 | 0.00 | 0.00 | 0.00 | 78 | 1018.6 |
| 20260510085402 | 2 | 180 | 1.6 | 9.7 | 0.00 | 0.00 | 0.00 | 77 | 1018.2 |
| 20260510084901 | 2 | 67 | 3.2 | 9.7 | 0.00 | 0.00 | 0.00 | 76 | 1018.0 |
| 20260510084400 | 2 | 191 | 1.6 | 8.0 | 0.00 | 0.00 | 0.00 | 75 | 1018.2 |
| 20260510083402 | 2 | 171 | 3.2 | 8.0 | 0.00 | 0.00 | 0.00 | 74 | 1018.0 |
| 20260510082901 | 2 | 139 | 3.2 | 6.4 | 0.00 | 0.00 | 0.00 | 75 | 1017.9 |
| 20260510082402 | 2 | 151 | 0.0 | 6.4 | 0.00 | 0.00 | 0.00 | 74 | 1017.9 |
| 20260510081902 | 2 | 160 | 4.8 | 4.8 | 0.00 | 0.00 | 0.00 | 73 | 1017.8 |
| 20260510081400 | 3 | 120 | 3.2 | 6.4 | 0.00 | 0.00 | 0.00 | 73 | 1017.9 |
| 20260510080901 | 3 | 111 | 0.0 | 6.4 | 0.00 | 0.00 | 0.00 | 73 | 1017.7 |
| 20260510080359 | 3 | 98 | 1.6 | 6.4 | 0.00 | 0.00 | 0.00 | 73 | 1017.7 |
| 20260510075856 | 3 | 152 | 0.0 | 6.4 | 0.00 | 0.00 | 0.00 | 73 | 1017.7 |
| 20260510075358 | 3 | 131 | 1.6 | 6.4 | 0.00 | 0.00 | 0.00 | 76 | 1017.8 |
| 20260510074848 | 3 | 160 | 1.6 | 6.4 | 0.00 | 0.00 | 0.00 | 76 | 1017.6 |
| 20260510074346 | 3 | 107 | 0.0 | 6.4 | 0.00 | 0.00 | 0.00 | 76 | 1017.5 |
| 20260510073847 | 3 | 145 | 0.0 | 8.0 | 0.00 | 0.00 | 0.00 | 77 | 1017.5 |
| 20260510073346 | 3 | 144 | 3.2 | 8.0 | 0.00 | 0.00 | 0.00 | 76 | 1017.6 |
| 20260510072848 | 3 | 147 | 3.2 | 6.4 | 0.00 | 0.00 | 0.00 | 76 | 1017.4 |
| 20260510072347 | 3 | 135 | 3.2 | 6.4 | 0.00 | 0.00 | 0.00 | 76 | 1017.5 |
| 20260510071845 | 4 | 160 | 1.6 | 6.4 | 0.00 | 0.00 | 0.00 | 76 | 1017.3 |
| 20260510071346 | 4 | 132 | 3.2 | 8.0 | 0.00 | 0.00 | 0.00 | 75 | 1017.3 |
| 20260510070845 | 4 | 139 | 3.2 | 8.0 | 0.00 | 0.00 | 0.00 | 75 | 1017.3 |
| 20260510070345 | 4 | 202 | 4.8 | 4.8 | 0.00 | 0.00 | 0.00 | 75 | 1017.3 |
| 20260510064846 | 4 | 150 | 3.2 | 6.4 | 0.00 | 0.00 | 0.00 | 74 | 1017.1 |
| 20260510063345 | 4 | 190 | 3.2 | 3.2 | 0.00 | 0.00 | 0.00 | 69 | 1017.1 |
| 20260510062843 | 4 | 165 | 0.0 | 4.8 | 0.00 | 0.00 | 0.00 | 68 | 1017.0 |
| 20260510062344 | 4 | 157 | 0.0 | 4.8 | 0.00 | 0.00 | 0.00 | 67 | 1017.0 |
| 20260510061845 | 5 | 168 | 3.2 | 3.2 | 0.00 | 0.00 | 0.00 | 67 | 1016.9 |
| 20260510061344 | 5 | 145 | 0.0 | 4.8 | 0.00 | 0.00 | 0.00 | 66 | 1016.7 |
| 20260510060845 | 5 | 215 | 1.6 | 6.4 | 0.00 | 0.00 | 0.00 | 65 | 1016.7 |
| 20260510060343 | 5 | 165 | 3.2 | 6.4 | 0.00 | 0.00 | 0.00 | 64 | 1016.5 |
| 20260510055841 | 5 | 154 | 0.0 | 6.4 | 0.00 | 0.00 | 0.00 | 64 | 1016.7 |
| 20260510054834 | 5 | 154 | 3.2 | 4.8 | 0.00 | 0.00 | 0.00 | 64 | 1016.4 |
| 20260510054330 | 5 | 173 | 0.0 | 4.8 | 0.00 | 0.00 | 0.00 | 65 | 1016.5 |
| 20260510053830 | 5 | 138 | 0.0 | 6.4 | 0.00 | 0.00 | 0.00 | 63 | 1016.5 |
| 20260510053331 | 6 | 114 | 0.0 | 6.4 | 0.00 | 0.00 | 0.00 | 63 | 1016.3 |
| 20260510052831 | 5 | 135 | 0.0 | 6.4 | 0.00 | 0.00 | 0.00 | 65 | 1016.4 |
| 20260510052331 | 6 | 173 | 0.0 | 6.4 | 0.00 | 0.00 | 0.00 | 64 | 1016.2 |
| 20260510051829 | 5 | 97 | 0.0 | 4.8 | 0.00 | 0.00 | 0.00 | 65 | 1016.1 |
| 20260510051350 | 5 | 72 | 0.0 | 4.8 | 0.00 | 0.00 | 0.00 | 65 | 1015.8 |
| 20260510050831 | 6 | 157 | 0.0 | 4.8 | 0.00 | 0.00 | 0.00 | 65 | 1016.3 |
| 20260510050329 | 6 | 102 | 0.0 | 4.8 | 0.00 | 0.00 | 0.00 | 64 | 1016.2 |
| 20260510045829 | 6 | 117 | 0.0 | 4.8 | 0.00 | 0.00 | 0.00 | 63 | 1016.1 |
| 20260510045331 | 6 | 114 | 1.6 | 4.8 | 0.00 | 0.00 | 0.00 | 63 | 1015.8 |
| 20260510044830 | 6 | 106 | 0.0 | 6.4 | 0.00 | 0.00 | 0.00 | 63 | 1016.1 |
| 20260510044348 | 6 | 148 | 1.6 | 6.4 | 0.00 | 0.00 | 0.00 | 62 | 1016.1 |
| 20260510043828 | 6 | 126 | 0.0 | 6.4 | 0.00 | 0.00 | 0.00 | 62 | 1016.1 |
| 20260510043330 | 6 | 126 | 1.6 | 4.8 | 0.00 | 0.00 | 0.00 | 61 | 1016.1 |
| 20260510042831 | 6 | 195 | 3.2 | 6.4 | 0.00 | 0.00 | 0.00 | 61 | 1015.8 |
| 20260510042329 | 6 | 101 | 3.2 | 6.4 | 0.00 | 0.00 | 0.00 | 61 | 1015.8 |
| 20260510041829 | 6 | 157 | 1.6 | 6.4 | 0.00 | 0.00 | 0.00 | 62 | 1015.9 |
| 20260510040830 | 6 | 157 | 0.0 | 6.4 | 0.00 | 0.00 | 0.00 | 62 | 1015.6 |
| 20260510040330 | 6 | 160 | 0.0 | 6.4 | 0.00 | 0.00 | 0.00 | 62 | 1015.9 |
| 20260510035831 | 6 | 180 | 0.0 | 4.8 | 0.00 | 0.00 | 0.00 | 62 | 1015.9 |
| 20260510034831 | 6 | 247 | 3.2 | 6.4 | 0.00 | 0.00 | 0.00 | 61 | 1015.9 |
| 20260510034331 | 6 | 169 | 1.6 | 6.4 | 0.00 | 0.00 | 0.00 | 60 | 1015.7 |
| 20260510033830 | 6 | 173 | 1.6 | 8.0 | 0.00 | 0.00 | 0.00 | 60 | 1015.8 |
| 20260510033332 | 6 | 168 | 3.2 | 12.9 | 0.00 | 0.00 | 0.00 | 59 | 1015.9 |
| 20260510032832 | 7 | 114 | 1.6 | 12.9 | 0.00 | 0.00 | 0.00 | 59 | 1015.7 |
| 20260510032330 | 7 | 208 | 6.4 | 8.0 | 0.00 | 0.00 | 0.00 | 59 | 1015.6 |
| 20260510031832 | 7 | 151 | 3.2 | 8.0 | 0.00 | 0.00 | 0.00 | 59 | 1015.6 |
| 20260510030830 | 7 | 180 | 1.6 | 6.4 | 0.00 | 0.00 | 0.00 | 57 | 1015.5 |
| 20260510025830 | 7 | 184 | 3.2 | 8.0 | 0.00 | 0.00 | 0.00 | 55 | 1015.3 |
| 20260510025329 | 7 | 161 | 4.8 | 4.8 | 0.00 | 0.00 | 0.00 | 54 | 1015.3 |
| 20260510024829 | 7 | 196 | 3.2 | 4.8 | 0.00 | 0.00 | 0.00 | 53 | 1015.4 |
| 20260510024331 | 7 | 146 | 3.2 | 4.8 | 0.00 | 0.00 | 0.00 | 53 | 1015.5 |
| 20260510023828 | 7 | 163 | 3.2 | 6.4 | 0.00 | 0.00 | 0.00 | 53 | 1015.1 |
| 20260510023330 | 7 | 90 | 0.0 | 6.4 | 0.00 | 0.00 | 0.00 | 53 | 1015.0 |
| 20260510022828 | 7 | 165 | 3.2 | 6.4 | 0.00 | 0.00 | 0.00 | 51 | 1015.3 |
| 20260510022328 | 7 | 131 | 1.6 | 6.4 | 0.00 | 0.00 | 0.00 | 51 | 1015.0 |
| 20260510021828 | 7 | 144 | 0.0 | 6.4 | 0.00 | 0.00 | 0.00 | 51 | 1014.9 |
| 20260510021327 | 7 | 180 | 0.0 | 8.0 | 0.00 | 0.00 | 0.00 | 51 | 1014.9 |
| 20260510020824 | 7 | 176 | 3.2 | 8.0 | 0.00 | 0.00 | 0.00 | 50 | 1014.8 |
| 20260510020322 | 7 | 143 | 3.2 | 6.4 | 0.00 | 0.00 | 0.00 | 50 | 1014.7 |
| 20260510015820 | 7 | 203 | 0.0 | 6.4 | 0.00 | 0.00 | 0.00 | 50 | 1014.6 |
| 20260510014318 | 7 | 152 | 3.2 | 12.9 | 0.00 | 0.00 | 0.00 | 49 | 1014.4 |
| 20260510013818 | 8 | 126 | 4.8 | 14.5 | 0.00 | 0.00 | 0.00 | 48 | 1014.2 |
| 20260510013319 | 8 | 163 | 9.7 | 14.5 | 0.00 | 0.00 | 0.00 | 48 | 1014.3 |
| 20260510012819 | 8 | 185 | 1.6 | 9.7 | 0.00 | 0.00 | 0.00 | 48 | 1014.0 |
| 20260510012318 | 8 | 151 | 3.2 | 9.7 | 0.00 | 0.00 | 0.00 | 48 | 1014.0 |
| 20260510011819 | 8 | 148 | 4.8 | 8.0 | 0.00 | 0.00 | 0.00 | 48 | 1014.0 |
| 20260510011320 | 8 | 112 | 3.2 | 9.7 | 0.00 | 0.00 | 0.00 | 48 | 1014.1 |
| 20260510010818 | 8 | 199 | 3.2 | 9.7 | 0.00 | 0.00 | 0.00 | 48 | 1014.0 |
| 20260510010318 | 8 | 118 | 4.8 | 9.7 | 0.00 | 0.00 | 0.00 | 48 | 1014.1 |
| 20260510005318 | 8 | 162 | 1.6 | 9.7 | 0.00 | 0.00 | 0.00 | 47 | 1014.0 |
| 20260510004818 | 8 | 180 | 3.2 | 9.7 | 0.00 | 0.00 | 0.00 | 46 | 1013.5 |
| 20260510004318 | 8 | 161 | 9.7 | 12.9 | 0.00 | 0.00 | 0.00 | 45 | 1013.8 |
| 20260510003820 | 8 | 135 | 4.8 | 16.1 | 0.00 | 0.00 | 0.00 | 45 | 1013.7 |
| 20260510003319 | 8 | 208 | 8.0 | 16.1 | 0.00 | 0.00 | 0.00 | 45 | 1013.7 |
| 20260510002820 | 9 | 138 | 11.3 | 11.3 | 0.00 | 0.00 | 0.00 | 45 | 1013.7 |
| 20260510002318 | 9 | 180 | 0.0 | 11.3 | 0.00 | 0.00 | 0.00 | 45 | 1013.3 |
| 20260510001818 | 10 | 178 | 6.4 | 11.3 | 0.00 | 0.00 | 0.00 | 43 | 1013.5 |
| 20260510001318 | 10 | 195 | 3.2 | 9.7 | 0.00 | 0.00 | 0.00 | 43 | 1013.4 |
| 20260510000819 | 10 | 188 | 0.0 | 9.7 | 0.00 | 0.00 | 0.00 | 41 | 1013.5 |
| 20260510000319 | 11 | 88 | 9.7 | 12.9 | 0.00 | 0.00 | 0.00 | 41 | 1013.4 |
| 20260509235818 | 10 | 152 | 6.4 | 14.5 | 0.00 | 0.00 | 0.00 | 41 | 1013.5 |
| 20260509235320 | 10 | 353 | 3.2 | 14.5 | 0.00 | 0.00 | 0.00 | 41 | 1013.4 |
| 20260509234318 | 9 | 200 | 4.8 | 19.3 | 0.00 | 0.00 | 0.00 | 43 | 1013.3 |
| 20260509233818 | 10 | 187 | 6.4 | 16.1 | 0.00 | 0.00 | 0.00 | 42 | 1013.3 |
| 20260509233318 | 10 | 184 | 3.2 | 16.1 | 0.00 | 0.00 | 0.00 | 42 | 1013.2 |
| 20260509232820 | 10 | 165 | 6.4 | 11.3 | 0.00 | 0.00 | 0.00 | 42 | 1013.2 |
| 20260509232318 | 10 | 147 | 3.2 | 14.5 | 0.00 | 0.00 | 0.00 | 43 | 1013.3 |
| 20260509231818 | 9 | 233 | 4.8 | 14.5 | 0.00 | 0.00 | 0.00 | 43 | 1013.2 |
| 20260509231319 | 9 | 183 | 6.4 | 11.3 | 0.00 | 0.00 | 0.00 | 43 | 1013.1 |
| 20260509230816 | 9 | 126 | 4.8 | 11.3 | 0.00 | 0.00 | 0.00 | 42 | 1012.9 |
| 20260509230317 | 10 | 146 | 3.2 | 9.7 | 0.00 | 0.00 | 0.00 | 43 | 1012.9 |
| 20260509224316 | 10 | 157 | 4.8 | 14.5 | 0.00 | 0.00 | 0.00 | 44 | 1012.9 |
| 20260509223817 | 10 | 110 | 9.7 | 14.5 | 0.00 | 0.00 | 0.00 | 42 | 1013.0 |
| 20260509223316 | 10 | 180 | 3.2 | 9.7 | 0.00 | 0.00 | 0.00 | 43 | 1012.8 |
| 20260509222817 | 10 | 188 | 8.0 | 11.3 | 0.00 | 0.00 | 0.00 | 43 | 1012.7 |
| 20260509222316 | 10 | 186 | 11.3 | 11.3 | 0.00 | 0.00 | 0.00 | 42 | 1013.0 |
| 20260509221812 | 10 | 140 | 4.8 | 12.9 | 0.00 | 0.00 | 0.00 | 43 | 1012.8 |
| 20260509221312 | 10 | 176 | 6.4 | 12.9 | 0.00 | 0.00 | 0.00 | 43 | 1012.9 |
| 20260509220813 | 10 | 172 | 0.0 | 11.3 | 0.00 | 0.00 | 0.00 | 43 | 1012.6 |
| 20260509220314 | 10 | 178 | 4.8 | 12.9 | 0.00 | 0.00 | 0.00 | 43 | 1012.7 |
| 20260509215801 | 10 | 237 | 1.6 | 12.9 | 0.00 | 0.00 | 0.00 | 41 | 1012.7 |
| 20260509215306 | 11 | 123 | 4.8 | 9.7 | 0.00 | 0.00 | 0.00 | 41 | 1012.5 |
| 20260509214302 | 10 | 180 | 3.2 | 16.1 | 0.00 | 0.00 | 0.00 | 41 | 1012.3 |
| 20260509213800 | 10 | 150 | 4.8 | 20.9 | 0.00 | 0.00 | 0.00 | 42 | 1012.6 |
| 20260509213302 | 10 | 155 | 8.0 | 20.9 | 0.00 | 0.00 | 0.00 | 40 | 1012.6 |
| 20260509212802 | 11 | 184 | 6.4 | 17.7 | 0.00 | 0.00 | 0.00 | 40 | 1012.5 |
| 20260509212306 | 11 | 169 | 6.4 | 16.1 | 0.00 | 0.00 | 0.00 | 40 | 1012.5 |
| 20260509211804 | 10 | 228 | 3.2 | 14.5 | 0.00 | 0.00 | 0.00 | 43 | 1012.5 |
| 20260509211307 | 10 | 174 | 12.9 | 16.1 | 0.00 | 0.00 | 0.00 | 42 | 1012.2 |
| 20260509210805 | 10 | 157 | 1.6 | 16.1 | 0.00 | 0.00 | 0.00 | 44 | 1012.5 |
| 20260509210306 | 10 | 171 | 8.0 | 16.1 | 0.00 | 0.00 | 0.00 | 42 | 1012.5 |
| 20260509205801 | 10 | 202 | 8.0 | 17.7 | 0.00 | 0.00 | 0.00 | 42 | 1012.5 |
| 20260509205306 | 10 | 159 | 11.3 | 17.7 | 0.00 | 0.00 | 0.00 | 41 | 1012.2 |
| 20260509204805 | 11 | 206 | 6.4 | 14.5 | 0.00 | 0.00 | 0.00 | 41 | 1012.2 |
| 20260509204303 | 10 | 195 | 4.8 | 16.1 | 0.00 | 0.00 | 0.00 | 42 | 1012.1 |
| 20260509203801 | 10 | 182 | 4.8 | 16.1 | 0.00 | 0.00 | 0.00 | 43 | 1012.1 |
| 20260509203302 | 10 | 137 | 4.8 | 12.9 | 0.00 | 0.00 | 0.00 | 43 | 1012.1 |
| 20260509202801 | 10 | 148 | 4.8 | 19.3 | 0.00 | 0.00 | 0.00 | 43 | 1012.1 |
| 20260509202306 | 10 | 206 | 8.0 | 19.3 | 0.00 | 0.00 | 0.00 | 41 | 1012.0 |
| 20260509201802 | 11 | 207 | 4.8 | 17.7 | 0.00 | 0.00 | 0.00 | 42 | 1012.2 |
| 20260509201303 | 11 | 90 | 0.0 | 16.1 | 0.00 | 0.00 | 0.00 | 43 | 1012.0 |
| 20260509200801 | 11 | 180 | 3.2 | 17.7 | 0.00 | 0.00 | 0.00 | 42 | 1011.7 |
| 20260509200304 | 11 | 165 | 6.4 | 17.7 | 0.00 | 0.00 | 0.00 | 41 | 1011.9 |
| 20260509195306 | 12 | 178 | 6.4 | 14.5 | 0.00 | 0.00 | 0.00 | 38 | 1011.8 |
| 20260509194801 | 12 | 108 | 8.0 | 14.5 | 0.00 | 0.00 | 0.00 | 38 | 1011.7 |
| 20260509194302 | 11 | 180 | 3.2 | 14.5 | 0.00 | 0.00 | 0.00 | 40 | 1011.7 |
| 20260509193304 | 11 | 140 | 8.0 | 16.1 | 0.00 | 0.00 | 0.00 | 41 | 1011.5 |
| 20260509192255 | 12 | 188 | 4.8 | 20.9 | 0.00 | 0.00 | 0.00 | 40 | 1011.4 |
| 20260509191755 | 11 | 106 | 3.2 | 20.9 | 0.00 | 0.00 | 0.00 | 42 | 1011.7 |
| 20260509191255 | 12 | 123 | 0.0 | 14.5 | 0.00 | 0.00 | 0.00 | 39 | 1011.6 |
| 20260509190752 | 12 | 154 | 6.4 | 12.9 | 0.00 | 0.00 | 0.00 | 40 | 1011.5 |
| 20260509190252 | 12 | 193 | 11.3 | 12.9 | 0.00 | 0.00 | 0.00 | 39 | 1011.4 |
| 20260509185751 | 12 | 165 | 4.8 | 11.3 | 0.00 | 0.00 | 0.00 | 40 | 1011.4 |
| 20260509185247 | 11 | 180 | 3.2 | 16.1 | 0.00 | 0.00 | 0.00 | 42 | 1011.4 |
| 20260509184743 | 10 | 245 | 3.2 | 16.1 | 0.00 | 0.00 | 0.00 | 44 | 1011.2 |
| 20260509183740 | 11 | 180 | 4.8 | 16.1 | 0.00 | 0.00 | 0.00 | 41 | 1011.3 |